Weather History for KRUT - February, 2013

Change the Weather History Date:

Friday, February 8, 2013

  Actual Average Record
Temperature  
Mean Temperature 22 °F -  
Max Temperature 25 °F - 51 °F (1965)
Min Temperature 18 °F - -20 °F (1967)
Degree Days  
Heating Degree Days 43    
Month to date heating degree days 382  
Since 1 July heating degree days 4107  
Cooling Degree Days 0    
Month to date cooling degree days 0  
Year to date cooling degree days 0  
Moisture  
Dew Point 13 °F    
Average Humidity 66    
Maximum Humidity 91    
Minimum Humidity 41    
Precipitation  
Precipitation 0.01 in - 0.75 in (1951)
Month to date precipitation 0.00  
Year to date precipitation 1.24  
Sea Level Pressure  
Sea Level Pressure 30.08 in    
Wind  
Wind Speed 15 mph (SE)    
Max Wind Speed 21 mph    
Max Gust Speed 33 mph    
Visibility 5 miles    
Events      
T = Trace of Precipitation, MM = Missing Value Source: NWS Daily Summary

Daily Weather History Graph

Daily Weather History Graph

Search for Another Location

Airport or City:

Trip Planner

Search our weather history database for the weather conditions in past years. The results will help you decide how hot, cold, wet, or windy it might be!

Date:

Astronomy

Feb. 08, 2013 Rise Set
Actual Time 6:59 AM EST 5:13 PM EST
Civil Twilight 6:29 AM EST 5:43 PM EST
Nautical Twilight 5:55 AM EST 6:16 PM EST
Astronomical Twilight 5:22 AM EST 6:50 PM EST
Moon 5:27 AM EST (2/8) 3:42 PM EST (2/8)
Length of Visible Light 11h 13m
Length of Day
10h 13m
Waning Crescent, 3% of the Moon is Illuminated
Feb 8
Waning Crescent
Feb 10
New
Feb 17
First Quarter
Feb 25
Full
Mar 4
Last Quarter

Hourly Weather History & Observations

Time (EST) Temp. Windchill Dew Point Humidity Pressure Visibility Wind Dir Wind Speed Gust Speed Precip Events Conditions
12:15 AM 21.2 °F 9.5 °F 1.4 °F 42% 30.35 in 10.0 mi SE 11.5 mph 18.4 mph N/A   Overcast
12:35 AM 21.2 °F 8.3 °F 1.4 °F 42% 30.34 in 10.0 mi ESE 13.8 mph 19.6 mph N/A   Overcast
12:55 AM 21.2 °F 7.8 °F 1.4 °F 42% 30.34 in 10.0 mi ESE 15.0 mph 24.2 mph N/A   Overcast
1:15 AM 21.2 °F 7.8 °F -0.4 °F 39% 30.33 in 10.0 mi ESE 15.0 mph - N/A   Overcast
1:55 AM 21.2 °F 6.8 °F 1.4 °F 42% 30.33 in 10.0 mi ESE 17.3 mph - N/A   Overcast
2:15 AM 21.2 °F 6.0 °F -0.4 °F 39% 30.32 in 10.0 mi ESE 19.6 mph 26.5 mph N/A   Overcast
2:35 AM 19.4 °F 5.5 °F 1.4 °F 46% 30.32 in 10.0 mi SE 15.0 mph 20.7 mph N/A   Overcast
2:55 AM 19.4 °F 4.5 °F 6.8 °F 58% 30.31 in 7.0 mi ESE 17.3 mph 24.2 mph N/A   Overcast
3:15 AM 19.4 °F 3.6 °F 5.0 °F 54% 30.29 in 10.0 mi ESE 19.6 mph 26.5 mph N/A   Overcast
3:35 AM 19.4 °F 3.6 °F 3.2 °F 49% 30.27 in 10.0 mi SE 19.6 mph 25.3 mph N/A   Overcast
3:55 AM 19.4 °F 5.5 °F 3.2 °F 49% 30.27 in 10.0 mi SE 15.0 mph 24.2 mph N/A   Overcast
4:35 AM 21.2 °F 7.8 °F 3.2 °F 46% 30.25 in 10.0 mi SE 15.0 mph 23.0 mph N/A   Overcast
4:55 AM 19.4 °F 3.6 °F 6.8 °F 58% 30.25 in 3.0 mi ESE 19.6 mph 32.2 mph N/A   Overcast
5:15 AM 19.4 °F 3.6 °F 10.4 °F 68% 30.25 in 2.0 mi SE 19.6 mph 25.3 mph N/A   Overcast
5:35 AM 19.4 °F 2.8 °F 10.4 °F 68% 30.24 in 3.0 mi SE 21.9 mph 26.5 mph N/A   Overcast
5:55 AM 19.4 °F 4.1 °F 12.2 °F 74% 30.23 in 2.0 mi SSE 18.4 mph 26.5 mph N/A   Overcast
6:15 AM 19.4 °F 5.0 °F 12.2 °F 74% 30.22 in 2.0 mi SE 16.1 mph 28.8 mph N/A   Overcast
6:35 AM 19.4 °F 3.6 °F 14.0 °F 80% 30.22 in 2.5 mi SE 19.6 mph 29.9 mph N/A   Overcast
6:55 AM 19.4 °F 3.2 °F 12.2 °F 74% 30.22 in 2.5 mi SE 20.7 mph 26.5 mph N/A   Overcast
7:15 AM 19.4 °F 5.5 °F 14.0 °F 80% 30.22 in 2.0 mi SE 15.0 mph 20.7 mph N/A   Overcast
7:35 AM 19.4 °F 5.5 °F 15.8 °F 86% 30.22 in 7.0 mi SE 15.0 mph 23.0 mph N/A   Overcast
7:55 AM 19.4 °F 5.0 °F 14.0 °F 80% 30.22 in 3.0 mi SSE 16.1 mph 21.9 mph N/A   Overcast
8:15 AM 19.4 °F 4.5 °F 14.0 °F 80% 30.21 in 1.8 mi SE 17.3 mph 27.6 mph N/A   Overcast
8:35 AM 19.4 °F 4.1 °F 15.8 °F 86% 30.20 in 1.2 mi SE 18.4 mph 28.8 mph N/A   Overcast
8:55 AM 21.2 °F 6.8 °F 15.8 °F 80% 30.20 in 2.5 mi SE 17.3 mph 27.6 mph N/A   Overcast
9:15 AM 21.2 °F 6.4 °F 15.8 °F 80% 30.19 in 5.0 mi SE 18.4 mph 31.1 mph N/A   Overcast
9:35 AM 21.2 °F 6.4 °F 15.8 °F 80% 30.18 in 5.0 mi SE 18.4 mph 28.8 mph N/A   Mostly Cloudy
9:55 AM 21.2 °F 6.0 °F 15.8 °F 80% 30.18 in 4.0 mi ESE 19.6 mph 33.4 mph N/A   Overcast
10:15 AM 21.2 °F 5.2 °F 14.0 °F 74% 30.18 in 9.0 mi SE 21.9 mph 27.6 mph N/A   Overcast
10:35 AM 21.2 °F 5.6 °F 15.8 °F 80% 30.18 in 8.0 mi SE 20.7 mph 29.9 mph N/A   Overcast
10:55 AM 21.2 °F 6.0 °F 15.8 °F 80% 30.17 in 6.0 mi SE 19.6 mph 27.6 mph N/A   Overcast
11:15 AM 21.2 °F 6.0 °F 15.8 °F 80% 30.16 in 9.0 mi SE 19.6 mph 27.6 mph N/A   Overcast
11:35 AM 21.2 °F 5.6 °F 15.8 °F 80% 30.14 in 9.0 mi SE 20.7 mph 28.8 mph N/A   Overcast
11:55 AM 21.2 °F 6.0 °F 15.8 °F 80% 30.12 in 5.0 mi SE 19.6 mph 31.1 mph N/A   Overcast
12:15 PM 21.2 °F 6.4 °F 15.8 °F 80% 30.10 in 5.0 mi SSE 18.4 mph 29.9 mph N/A   Overcast
12:35 PM 21.2 °F 6.4 °F 15.8 °F 80% 30.08 in 9.0 mi SE 18.4 mph 26.5 mph N/A   Overcast
12:55 PM 21.2 °F 6.0 °F 15.8 °F 80% 30.07 in 7.0 mi SE 19.6 mph 28.8 mph N/A   Overcast
1:15 PM 21.2 °F 6.8 °F 15.8 °F 80% 30.06 in 7.0 mi SE 17.3 mph 27.6 mph N/A   Overcast
1:35 PM 21.2 °F 5.2 °F 15.8 °F 80% 30.04 in 4.0 mi SE 21.9 mph 28.8 mph N/A   Overcast
1:55 PM 21.2 °F 6.4 °F 17.6 °F 86% 30.02 in 3.0 mi ESE 18.4 mph 25.3 mph N/A   Mostly Cloudy
2:15 PM 23.0 °F 10.1 °F 15.8 °F 74% 30.01 in 4.0 mi SE 15.0 mph 21.9 mph N/A   Overcast
2:35 PM 23.0 °F 9.2 °F 17.6 °F 80% 29.99 in 5.0 mi ESE 17.3 mph 25.3 mph N/A   Overcast
2:55 PM 23.0 °F 11.1 °F 17.6 °F 80% 29.98 in 5.0 mi ESE 12.7 mph 26.5 mph N/A   Overcast
3:15 PM 24.8 °F 15.3 °F 17.6 °F 74% 29.98 in 10.0 mi ESE 9.2 mph 21.9 mph N/A   Overcast
3:35 PM 24.8 °F 12.4 °F 17.6 °F 74% 29.98 in 10.0 mi SE 15.0 mph 27.6 mph N/A   Overcast
3:55 PM 24.8 °F 16.1 °F 17.6 °F 74% 29.96 in 10.0 mi East 8.1 mph 23.0 mph N/A   Overcast
4:15 PM 23.0 °F 14.7 °F 15.8 °F 74% 29.95 in 2.5 mi SSE 6.9 mph 17.3 mph N/A   Overcast
4:35 PM 23.0 °F 13.9 °F 17.6 °F 80% 29.94 in 1.2 mi ESE 8.1 mph 18.4 mph N/A   Overcast
4:55 PM 21.2 °F 9.5 °F 17.6 °F 86% 29.94 in 1.5 mi SE 11.5 mph 25.3 mph N/A   Overcast
5:15 PM 21.2 °F 6.0 °F 17.6 °F 86% 29.93 in 1.0 mi SE 19.6 mph 31.1 mph N/A   Overcast
5:35 PM 21.2 °F 7.3 °F 15.8 °F 80% 29.92 in 2.0 mi ESE 16.1 mph 24.2 mph N/A   Overcast
5:55 PM 21.2 °F 6.0 °F 15.8 °F 80% 29.92 in 1.5 mi ESE 19.6 mph 31.1 mph N/A   Overcast
6:15 PM 21.2 °F 8.3 °F 15.8 °F 80% 29.92 in 2.0 mi ESE 13.8 mph 26.5 mph N/A   Overcast
6:35 PM 21.2 °F 6.0 °F 15.8 °F 80% 29.91 in 2.0 mi SE 19.6 mph 35.7 mph N/A   Overcast
6:55 PM 21.2 °F 7.3 °F 14.0 °F 74% 29.91 in 2.0 mi SE 16.1 mph 29.9 mph N/A   Overcast
7:15 PM 19.4 °F 5.0 °F 14.0 °F 80% 29.91 in 2.5 mi ESE 16.1 mph 23.0 mph N/A   Overcast
7:35 PM 19.4 °F 9.5 °F 15.8 °F 86% 29.91 in 2.5 mi SSE 8.1 mph 18.4 mph N/A   Overcast
7:55 PM 19.4 °F 10.4 °F 15.8 °F 86% 29.89 in 2.0 mi East 6.9 mph 19.6 mph N/A   Overcast
8:15 PM 19.4 °F 10.4 °F 15.8 °F 86% 29.89 in 2.5 mi South 6.9 mph - N/A   Overcast
8:35 PM 19.4 °F 9.5 °F 14.0 °F 80% 29.88 in 2.0 mi ESE 8.1 mph 20.7 mph N/A   Overcast
8:55 PM 19.4 °F 5.5 °F 15.8 °F 86% 29.87 in 2.5 mi ESE 15.0 mph 20.7 mph N/A   Overcast
9:15 PM 21.2 °F 8.9 °F 15.8 °F 80% 29.86 in 2.5 mi ESE 12.7 mph 23.0 mph N/A   Overcast
9:35 PM 21.2 °F 11.7 °F 14.0 °F 74% 29.86 in 2.5 mi SE 8.1 mph 17.3 mph N/A   Overcast
9:55 PM 21.2 °F 9.5 °F 15.8 °F 80% 29.85 in 2.5 mi SE 11.5 mph - N/A   Overcast
10:15 PM 19.4 °F 12.8 °F 17.6 °F 93% 29.85 in 1.8 mi NNE 4.6 mph - N/A   Overcast
10:55 PM 19.4 °F 10.4 °F 17.6 °F 93% 29.83 in 1.8 mi NNW 6.9 mph - 0.01 in   Overcast
11:15 PM 19.4 °F 11.5 °F 17.6 °F 93% 29.82 in 2.5 mi North 5.8 mph - N/A   Overcast
11:35 PM 19.4 °F 10.4 °F 17.6 °F 93% 29.81 in 2.0 mi NNW 6.9 mph - N/A   Overcast
11:55 PM 19.4 °F 8.6 °F 17.6 °F 93% 29.80 in 2.0 mi North 9.2 mph - N/A   Overcast